CW7056 Olongapo City PH current weather conditions

sailwx.info

Wind from 360

Air temperature 25.0° C
Dewpoint 23.8° C

Last reported at 2014-Sep-19 10:48 UTC.
Time now 2014-Sep-19 11:52 UTC

Location: N 14°51' E 120°16'.
View on Google Maps.

See reports from other nearby stations

  
Tides and Currents Weather Stations Pressure Air Temp Water Temp Dewpoint Dewpoint Depression Visibility Wind Speed Wind Dir Waves Ship Positions
date/time (UTC)wind fromknots sea level pressurealtimeterstation pressurevisibilityair tempwater tempwave heightnotes
2014-Sep-19 10:48 360 25.0
2014-Sep-19 10:38 360 24.4
2014-Sep-19 10:28 360 24.4
2014-Sep-19 10:16 360 25.0
2014-Sep-19 10:06 360 25.0
2014-Sep-19 09:56 221 24.4
2014-Sep-19 09:45 219 24.4
2014-Sep-19 09:35 360 24.4
2014-Sep-19 09:25 360 24.4
2014-Sep-19 09:15 229 24.4
2014-Sep-19 09:05 360 24.4
2014-Sep-19 08:55 360 24.4
2014-Sep-19 08:45 24.4
2014-Sep-19 08:35 032 24.4
2014-Sep-19 08:24 032 24.4
2014-Sep-19 08:14 031 24.4
2014-Sep-19 08:04 030 24.4
2014-Sep-19 07:54 030 23.9
2014-Sep-19 07:44 030 23.9
2014-Sep-19 07:33 030 23.9
2014-Sep-19 07:23 030 24.4
2014-Sep-19 07:12 030 25.0
2014-Sep-19 07:01 25.6
2014-Sep-19 06:48 269 25.6
2014-Sep-19 06:38 269 25.6
2014-Sep-19 06:27 267 25.6
2014-Sep-19 06:17 269 25.6
2014-Sep-19 06:07 267 25.6
2014-Sep-19 05:57 267 25.6
2014-Sep-19 05:46 268 0 gusting 0 25.0
2014-Sep-19 05:36 268 25.0
2014-Sep-19 05:25 268 25.0
2014-Sep-19 05:15 268 25.0
2014-Sep-19 05:05 269 25.6
2014-Sep-19 04:54 290 0 gusting 0 25.6
2014-Sep-19 04:44 290 25.6
2014-Sep-19 04:33 290 25.6
2014-Sep-19 04:23 290 25.6
2014-Sep-19 04:13 291 26.1
2014-Sep-19 04:03 284 26.1
2014-Sep-19 03:51 26.1
2014-Sep-19 03:40 041 26.1
2014-Sep-19 03:30 046 26.1
2014-Sep-19 03:19 009 26.1
2014-Sep-19 03:09 325 25.6
2014-Sep-19 02:58 041 26.1
2014-Sep-19 02:48 314 26.1
2014-Sep-19 02:38 315 25.6
2014-Sep-19 02:28 315 25.6
2014-Sep-19 02:18 053 25.6
2014-Sep-19 02:08 043 26.1
2014-Sep-19 01:58 055 26.1
2014-Sep-19 01:47 055 26.1
2014-Sep-19 01:35 054 26.1
2014-Sep-19 01:24 055 26.1
2014-Sep-19 01:14 065 26.7
2014-Sep-19 01:04 084 26.7
2014-Sep-19 00:52 360 26.7
2014-Sep-19 00:42 011 27.2
2014-Sep-19 00:32 011 26.7
2014-Sep-19 00:22 011 26.1
2014-Sep-19 00:11 019 25.6
2014-Sep-19 00:01 015 25.6
2014-Sep-18 23:51 050 25.6
2014-Sep-18 23:40 050 25.6
2014-Sep-18 23:30 100 26.1
2014-Sep-18 23:17 094 26.1
2014-Sep-18 23:06 094 26.1
2014-Sep-18 22:56 054 26.1
2014-Sep-18 22:35 336 26.7
2014-Sep-18 22:25 059 27.2
2014-Sep-18 22:15 059 27.2
2014-Sep-18 22:05 059 27.2
2014-Sep-18 21:55 318 27.2
2014-Sep-18 21:45 321 27.2
2014-Sep-18 21:34 324 27.2
2014-Sep-18 21:24 333 27.2
2014-Sep-18 21:14 334 27.2
2014-Sep-18 21:03 334 27.2
2014-Sep-18 20:53 021 27.2
2014-Sep-18 20:41 021 27.2
2014-Sep-18 20:31 021 27.2
2014-Sep-18 20:20 015 27.8
2014-Sep-18 20:10 360 27.8
2014-Sep-18 19:59 071 27.8
2014-Sep-18 19:49 074 27.8
2014-Sep-18 19:39 074 27.8
2014-Sep-18 19:29 074 27.8
2014-Sep-18 19:18 073 27.8
2014-Sep-18 19:07 074 27.8
2014-Sep-18 18:57 330 27.8
2014-Sep-18 18:47 277 27.8
2014-Sep-18 18:34 031 27.8
2014-Sep-18 18:24 067 27.8
2014-Sep-18 18:13 020 27.8
2014-Sep-18 18:01 016 27.8
2014-Sep-18 17:50 080 27.8
2014-Sep-18 17:30 031 27.8
2014-Sep-18 17:19 360 27.8
2014-Sep-18 17:09 344 27.8
2014-Sep-18 16:57 043 27.8
2014-Sep-18 16:47 044 27.8
2014-Sep-18 16:36 025 27.8
2014-Sep-18 16:26 009 27.8
2014-Sep-18 16:14 009 27.8
2014-Sep-18 16:04 315 27.8
2014-Sep-18 15:54 048 27.8
2014-Sep-18 15:44 049 27.8
2014-Sep-18 15:34 021 27.8
2014-Sep-18 15:24 082 28.3
2014-Sep-18 15:12 111 28.3
2014-Sep-18 15:00 124 28.3
2014-Sep-18 14:50 340 28.3
2014-Sep-18 14:40 340 28.3
2014-Sep-18 14:30 360 28.3
2014-Sep-18 14:18 360 28.3
2014-Sep-18 14:08 039 28.3
2014-Sep-18 13:58 040 27.8
2014-Sep-18 13:48 360 27.8
2014-Sep-18 13:36 360 27.8
2014-Sep-18 13:26 318 27.8
2014-Sep-18 13:15 360 28.3
2014-Sep-18 13:05 360 28.3
2014-Sep-18 12:54 360 28.3
2014-Sep-18 12:44 360 28.3
2014-Sep-18 12:34 360 28.3
2014-Sep-18 12:24 360 28.3
2014-Sep-18 12:14 317 28.3
2014-Sep-18 12:04 360 28.3
2014-Sep-18 11:54 360 28.3
2014-Sep-18 11:42 341 28.3
2014-Sep-18 11:32 342 28.9
2014-Sep-18 11:21 034 28.9
2014-Sep-18 11:10 035 28.9
2014-Sep-18 11:00 034 28.9
2014-Sep-18 10:49 034 28.9
2014-Sep-18 10:39 036 28.9
2014-Sep-18 10:29 077 28.9
2014-Sep-18 10:18 116 28.9
2014-Sep-18 10:07 051 28.9
2014-Sep-18 09:57 011 28.9
2014-Sep-18 09:45 031 28.9
2014-Sep-18 09:35 349 29.4
2014-Sep-18 09:25 059 29.4
2014-Sep-18 09:14 067 29.4
2014-Sep-18 09:04 054 30.0
2014-Sep-18 08:54 347 30.0
2014-Sep-18 08:42 323 30.0
2014-Sep-18 08:32 330 30.6
2014-Sep-18 08:21 326 30.6
2014-Sep-18 08:11 057 30.6
2014-Sep-18 07:59 314 30.6
2014-Sep-18 07:49 298 31.1
2014-Sep-18 07:39 296 31.1
2014-Sep-18 07:19 036 31.1
2014-Sep-18 07:09 075 31.1
2014-Sep-18 06:59 311 31.7
2014-Sep-18 06:48 310 31.7
2014-Sep-18 06:37 314 31.7
2014-Sep-18 06:26 281 32.2
2014-Sep-18 06:16 032 31.7
2014-Sep-18 06:06 033 31.7
2014-Sep-18 05:56 319 31.7
2014-Sep-18 05:44 318 31.7
2014-Sep-18 05:34 319 31.1
2014-Sep-18 05:24 360 30.6
2014-Sep-18 05:14 360 31.1
2014-Sep-18 05:03 360 31.7
2014-Sep-18 04:52 360 31.7
2014-Sep-18 04:41 360 31.7
2014-Sep-18 04:30 322 31.1
2014-Sep-18 04:20 019 31.7
2014-Sep-18 04:10 009 31.7
2014-Sep-18 04:00 023 31.7
2014-Sep-18 03:49 023 30.6
2014-Sep-18 03:39 022 30.6
2014-Sep-18 03:29 023 31.1
2014-Sep-18 03:18 022 31.1
2014-Sep-18 03:07 022 30.6
2014-Sep-18 02:57 022 31.1
2014-Sep-18 02:46 022 30.6
2014-Sep-18 02:36 023 30.0
2014-Sep-18 02:26 023 30.0
2014-Sep-18 02:16 023 30.0
2014-Sep-18 02:05 022 30.0
2014-Sep-18 01:54 022 29.4
2014-Sep-18 01:44 023 29.4
2014-Sep-18 01:34 023 29.4
2014-Sep-18 01:24 023 28.9
2014-Sep-18 01:14 023 28.9
2014-Sep-18 01:04 023 28.3
2014-Sep-18 00:54 023 27.8
2014-Sep-18 00:42 023 27.2
2014-Sep-18 00:32 023 27.2
2014-Sep-18 00:22 023 27.2
2014-Sep-18 00:12 023 26.7
2014-Sep-18 00:01 023 26.7
2014-Sep-17 23:51 023 26.7
2014-Sep-17 23:40 024 26.1
2014-Sep-17 23:30 024 26.1
2014-Sep-17 23:20 024 25.6
2014-Sep-17 23:10 024 25.6
2014-Sep-17 23:00 024 25.0
2014-Sep-17 22:47 024 25.0
2014-Sep-17 22:37 024 25.0
2014-Sep-17 22:27 024 24.4
2014-Sep-17 22:17 024 24.4
2014-Sep-17 22:07 024 24.4
2014-Sep-17 21:56 024 24.4
2014-Sep-17 21:46 024 24.4
2014-Sep-17 21:36 024 24.4
2014-Sep-17 21:26 024 24.4
2014-Sep-17 21:16 024 25.0
2014-Sep-17 21:06 024 24.4
2014-Sep-17 20:54 024 25.0
2014-Sep-17 20:44 024 25.0
2014-Sep-17 20:33 024 24.4
2014-Sep-17 20:22 024 24.4
2014-Sep-17 20:11 024 24.4
2014-Sep-17 20:01 024 24.4
2014-Sep-17 19:51 024 24.4
2014-Sep-17 19:41 024 24.4
2014-Sep-17 19:31 024 24.4
2014-Sep-17 19:21 024 24.4
2014-Sep-17 19:09 024 24.4
2014-Sep-17 18:58 024 24.4
2014-Sep-17 18:48 024 24.4
2014-Sep-17 18:38 024 24.4
2014-Sep-17 18:28 024 25.0
2014-Sep-17 18:16 024 24.4
2014-Sep-17 18:06 024 24.4
2014-Sep-17 17:55 024 25.0
2014-Sep-17 17:44 024 25.0
2014-Sep-17 17:34 024 25.0
2014-Sep-17 17:22 024 25.0
2014-Sep-17 17:11 024 25.0
2014-Sep-17 17:00 024 25.0
2014-Sep-17 16:50 024 25.0
2014-Sep-17 16:40 024 25.0
2014-Sep-17 16:30 024 25.0
2014-Sep-17 16:19 024 25.6
2014-Sep-17 16:09 024 25.0
2014-Sep-17 15:59 024 25.0
2014-Sep-17 15:49 023 25.6
2014-Sep-17 15:39 023 25.0
2014-Sep-17 15:28 023 25.6
2014-Sep-17 15:18 023 25.6
2014-Sep-17 15:08 023 25.0
2014-Sep-17 14:58 023 25.0
2014-Sep-17 14:47 023 25.0
2014-Sep-17 14:36 023 25.0
2014-Sep-17 14:26 023 25.0
2014-Sep-17 14:16 023 25.6
2014-Sep-17 14:06 023 25.6
2014-Sep-17 13:56 023 25.6
2014-Sep-17 13:46 023 25.6
2014-Sep-17 13:34 023 26.1
2014-Sep-17 13:24 023 26.1
2014-Sep-17 13:14 023 26.1
2014-Sep-17 13:03 023 26.1
2014-Sep-17 12:53 023 26.1
2014-Sep-17 12:43 023 26.1
2014-Sep-17 12:33 023 26.1
2014-Sep-17 12:23 023 26.1
2014-Sep-17 12:13 022 26.7
2014-Sep-17 12:02 022 26.1
2014-Sep-17 11:52 022 26.1
2014-Sep-17 11:42 022 26.1
2014-Sep-17 11:31 022 0 gusting 0 26.1
2014-Sep-17 11:21 022 26.1
2014-Sep-17 11:11 022 26.1
2014-Sep-17 11:01 022 26.1